TimeEDT,TemperatureF,Dew PointF,Humidity,Sea Level PressureIn,VisibilityMPH,Wind Direction,Wind SpeedMPH,Gust SpeedMPH,PrecipitationIn,Events,Conditions,WindDirDegrees,DateUTC
12:15 AM,62.6,60.8,94,29.68,10.0,NNE,15.0,25.3,0.02,Rain,Light Rain,20,2012-10-28 04:15:00
12:35 AM,62.6,60.8,94,29.67,10.0,NNE,13.8,21.9,0.04,Rain,Rain,20,2012-10-28 04:35:00
12:55 AM,62.6,60.8,94,29.67,10.0,NNE,13.8,19.6,0.11,Rain,Rain,30,2012-10-28 04:55:00
1:15 AM,62.6,60.8,94,29.66,10.0,NNE,17.3,26.5,0.06,Rain,Heavy Rain,20,2012-10-28 05:15:00
1:35 AM,62.6,60.8,94,29.66,10.0,NNE,15.0,21.9,0.16,Rain,Rain,20,2012-10-28 05:35:00
1:55 AM,62.6,60.8,94,29.66,10.0,NNE,13.8,23.0,0.26,Rain,Heavy Rain,30,2012-10-28 05:55:00
2:15 AM,60.8,60.8,100,29.66,10.0,NNE,16.1,24.2,0.09,Rain,Rain,30,2012-10-28 06:15:00
2:35 AM,60.8,60.8,100,29.66,10.0,NNE,13.8,25.3,0.17,Rain,Rain,20,2012-10-28 06:35:00
2:55 AM,60.8,60.8,100,29.65,10.0,NNE,15.0,24.2,0.21,Rain,Rain,20,2012-10-28 06:55:00
3:15 AM,60.8,60.8,100,29.63,10.0,North,17.3,25.3,0.04,Rain,Rain,10,2012-10-28 07:15:00
3:35 AM,60.8,60.8,100,29.63,10.0,NNE,12.7,27.6,0.07,Rain,Light Rain,20,2012-10-28 07:35:00
3:55 AM,60.8,60.8,100,29.62,10.0,NNE,16.1,24.2,0.09,Rain,Light Rain,30,2012-10-28 07:55:00
4:15 AM,60.8,60.8,100,29.61,10.0,NNE,16.1,25.3,0.03,Rain,Light Rain,20,2012-10-28 08:15:00
4:35 AM,60.8,60.8,100,29.61,7.0,NNE,17.3,26.5,0.06,Rain,Rain,30,2012-10-28 08:35:00
4:55 AM,60.8,60.8,100,29.61,10.0,NNE,16.1,26.5,0.10,Rain,Rain,30,2012-10-28 08:55:00
5:15 AM,60.8,60.8,100,29.60,7.0,NNE,18.4,28.8,0.06,Rain,Rain,30,2012-10-28 09:15:00
5:35 AM,60.8,60.8,100,29.60,10.0,NNE,15.0,25.3,0.16,Rain,Rain,30,2012-10-28 09:35:00
5:55 AM,60.8,60.8,100,29.59,10.0,NNE,18.4,27.6,0.22,Rain,Rain,30,2012-10-28 09:55:00
6:15 AM,60.8,60.8,100,29.59,10.0,NNE,15.0,24.2,0.05,Rain,Rain,20,2012-10-28 10:15:00
6:35 AM,60.8,60.8,100,29.58,10.0,NNE,12.7,24.2,0.10,Rain,Rain,30,2012-10-28 10:35:00
6:55 AM,60.8,60.8,100,29.57,10.0,NNE,17.3,27.6,0.12,Rain,Light Rain,20,2012-10-28 10:55:00
7:15 AM,60.8,60.8,100,29.58,10.0,NNE,17.3,24.2,0.03,Rain,Rain,20,2012-10-28 11:15:00
7:35 AM,60.8,60.8,100,29.58,10.0,NNE,17.3,23.0,0.07,Rain,Rain,20,2012-10-28 11:35:00
7:55 AM,60.8,60.8,100,29.59,10.0,NNE,15.0,20.7,0.10,Rain,Light Rain,30,2012-10-28 11:55:00
8:15 AM,60.8,60.8,100,29.58,10.0,North,11.5,23.0,0.02,Rain,Rain,10,2012-10-28 12:15:00
8:35 AM,60.8,60.8,100,29.59,10.0,NNE,15.0,23.0,0.05,Rain,Rain,20,2012-10-28 12:35:00
8:55 AM,60.8,60.8,100,29.59,10.0,North,12.7,24.2,0.10,Rain,Rain,10,2012-10-28 12:55:00
9:15 AM,60.8,60.8,100,29.58,10.0,NNE,12.7,21.9,0.04,Rain,Rain,20,2012-10-28 13:15:00
9:35 AM,60.8,60.8,100,29.59,10.0,NNE,11.5,19.6,0.07,Rain,Rain,20,2012-10-28 13:35:00
9:55 AM,60.8,60.8,100,29.58,10.0,North,18.4,25.3,0.10,Rain,Light Rain,10,2012-10-28 13:55:00
10:35 AM,60.8,60.8,100,29.57,10.0,North,13.8,24.2,0.06,Rain,Rain,10,2012-10-28 14:35:00
10:55 AM,60.8,60.8,100,29.57,10.0,North,10.4,19.6,0.11,Rain,Rain,10,2012-10-28 14:55:00
11:15 AM,60.8,60.8,100,29.56,10.0,NNE,10.4,17.3,0.03,Rain,Rain,20,2012-10-28 15:15:00
11:35 AM,60.8,60.8,100,29.55,10.0,North,12.7,19.6,0.07,Rain,Rain,10,2012-10-28 15:35:00
11:55 AM,60.8,60.8,100,29.54,10.0,NNE,10.4,19.6,0.09,Rain,Light Rain,20,2012-10-28 15:55:00
12:15 PM,60.8,60.8,100,29.54,10.0,NNE,11.5,17.3,0.03,Rain,Rain,20,2012-10-28 16:15:00
12:35 PM,60.8,60.8,100,29.53,10.0,NNE,13.8,20.7,0.09,Rain,Rain,20,2012-10-28 16:35:00
1:15 PM,60.8,60.8,100,29.51,10.0,NNE,15.0,19.6,0.02,Rain,Light Rain,20,2012-10-28 17:15:00
1:35 PM,60.8,60.8,100,29.50,10.0,North,12.7,21.9,0.04,Rain,Light Rain,10,2012-10-28 17:35:00
1:55 PM,60.8,60.8,100,29.50,10.0,North,8.1,19.6,0.06,Rain,Rain,10,2012-10-28 17:55:00
2:15 PM,59.0,59.0,100,29.50,10.0,North,11.5,17.3,0.03,Rain,Rain,10,2012-10-28 18:15:00
2:35 PM,60.8,60.8,100,29.49,10.0,North,8.1,-,0.06,Rain,Rain,10,2012-10-28 18:35:00
2:55 PM,60.8,60.8,100,29.48,10.0,NNE,13.8,18.4,0.08,Rain,Rain,20,2012-10-28 18:55:00
3:15 PM,60.8,60.8,100,29.48,10.0,NNE,13.8,25.3,0.03,Rain,Light Rain,20,2012-10-28 19:15:00
3:35 PM,60.8,60.8,100,29.48,10.0,NNE,13.8,20.7,0.05,Rain,Light Rain,20,2012-10-28 19:35:00
3:55 PM,59.0,59.0,100,29.48,10.0,North,11.5,19.6,0.08,Rain,Rain,10,2012-10-28 19:55:00
4:15 PM,59.0,59.0,100,29.47,10.0,NNE,13.8,20.7,0.04,Rain,Rain,20,2012-10-28 20:15:00
4:35 PM,59.0,59.0,100,29.46,10.0,NNE,12.7,23.0,0.06,Rain,Light Rain,20,2012-10-28 20:35:00
4:55 PM,60.8,60.8,100,29.46,10.0,North,12.7,23.0,0.09,Rain,Light Rain,10,2012-10-28 20:55:00
5:15 PM,60.8,60.8,100,29.47,10.0,North,16.1,19.6,0.02,Rain,Rain,10,2012-10-28 21:15:00
5:35 PM,60.8,60.8,100,29.46,10.0,NNE,16.1,24.2,0.06,Rain,Rain,30,2012-10-28 21:35:00
5:55 PM,60.8,60.8,100,29.47,10.0,North,16.1,24.2,0.09,Rain,Rain,10,2012-10-28 21:55:00
6:15 PM,60.8,60.8,100,29.46,10.0,North,13.8,20.7,0.03,Rain,Light Rain,10,2012-10-28 22:15:00
6:35 PM,60.8,60.8,100,29.46,10.0,North,10.4,20.7,0.05,Rain,Light Rain,360,2012-10-28 22:35:00
6:55 PM,60.8,60.8,100,29.47,10.0,North,10.4,19.6,0.07,Rain,Rain,350,2012-10-28 22:55:00
7:15 PM,60.8,60.8,100,29.47,10.0,North,15.0,21.9,0.02,Rain,Light Rain,10,2012-10-28 23:15:00
7:35 PM,60.8,60.8,100,29.47,10.0,North,11.5,21.9,0.03,Rain,Light Rain,360,2012-10-28 23:35:00
7:55 PM,60.8,60.8,100,29.47,10.0,North,12.7,24.2,0.05,Rain,Rain,360,2012-10-28 23:55:00
8:15 PM,59.0,59.0,100,29.46,10.0,North,12.7,20.7,0.05,Rain,Rain,360,2012-10-29 00:15:00
8:35 PM,59.0,59.0,100,29.46,10.0,North,10.4,17.3,0.07,Rain,Light Rain,360,2012-10-29 00:35:00
8:55 PM,59.0,59.0,100,29.47,10.0,North,9.2,23.0,0.08,Rain,Light Rain,360,2012-10-29 00:55:00
9:15 PM,59.0,59.0,100,29.46,10.0,North,11.5,18.4,0.01,Rain,Light Rain,360,2012-10-29 01:15:00
9:55 PM,57.2,57.2,100,29.45,10.0,North,11.5,16.1,0.04,Rain,Light Rain,350,2012-10-29 01:55:00
10:15 PM,57.2,57.2,100,29.46,10.0,NNW,4.6,-,0.01,Rain,Light Rain,330,2012-10-29 02:15:00
10:35 PM,57.2,57.2,100,29.45,10.0,NNW,9.2,16.1,0.02,Rain,Light Rain,340,2012-10-29 02:35:00
10:55 PM,57.2,57.2,100,29.43,10.0,North,11.5,19.6,0.04,Rain,Light Rain,360,2012-10-29 02:55:00
11:15 PM,57.2,57.2,100,29.42,10.0,North,15.0,21.9,0.03,Rain,Rain,360,2012-10-29 03:15:00
11:35 PM,57.2,57.2,100,29.41,10.0,North,9.2,18.4,0.06,Rain,Rain,350,2012-10-29 03:35:00
11:55 PM,57.2,57.2,100,29.40,10.0,North,13.8,21.9,0.09,Rain,Light Rain,350,2012-10-29 03:55:00